Retour au catalogue

STARLINK-34475

ActifCommunicationsVLEO
NORAD 64603·PAYLOAD·🇺🇸 United States

Lancé Jun 25, 2025 depuis Cape Canaveral Space Force Station

Loading…

Prochains Passages (prochaines 24 heures)

TLE

FraisSource: CelesTrak SupGP

Époque: Sep 15, 2026, 02:52 UTC

1 64603C 25137K   26258.11993056 -.00049782  00000+0 -15106-2 0  2588
2 64603  53.1580 173.0931 0001317  88.0643 119.3635 15.33572675    11

Suivez STARLINK-34475 en temps réel avec AllMySat

Download on the App Store